Regional Weather Roundup
Issued by NWS

Home | Current Version | Previous Version | Graphics & Text | Print | Product List | Glossary On
Versions: 1 2 3 4 5 6 7 8 9 10 11 12 13 14 15 16 17 18 19 20 21 22 23 24 25 26 27 28 29 30 31 32 33 34 35 36 37 38 39 40 41 42 43 44 45 46 47 48 49 50
000
ASUS43 KLOT 030108
RWRIL

ILLINOIS REGIONAL WEATHER ROUNDUP
NATIONAL WEATHER SERVICE CHICAGO/ROMEOVILLE IL
800 PM CDT TUE JUN 02 2015

NOTE: "FAIR" INDICATES FEW OR NO CLOUDS BELOW 12,000 FEET WITH NO
SIGNIFICANT WEATHER AND/OR OBSTRUCTIONS TO VISIBILITY.

* THESE STATIONS ARE NOT UNDER NWS QUALITY CONTROL. THEY ALSO MAY NOT
  REPORT WEATHER SUCH AS PRECIPITATION OR FOG.

ILZ001-002-007-009-015-016-024-030200-
NORTHWEST ILLINOIS

CITY           SKY/WX    TMP DP  RH WIND       PRES   REMARKS
MOLINE         MOCLDY    70  52  52 S3        30.04R
STERLING*      PTCLDY    70  48  46 S3        30.05S
SAVANNA*       MOCLDY    70  47  44 SE6       30.04S
$$

ILZ003-004-008-010-011-017-018-030200-
NORTH CENTRAL ILLINOIS

CITY           SKY/WX    TMP DP  RH WIND       PRES   REMARKS
ROCKFORD       CLOUDY    69  47  45 S6        30.07S
FREEPORT*      MOCLDY    67  47  48 SE6       30.07S
ROCHELLE*      PTCLDY    69  45  42 SE8       30.07R
DE KALB*       PTCLDY    64  46  51 SE7       30.07S
PERU*          PTCLDY    70  45  40 SE6       30.06S
$$

ILZ005-006-012>014-019>023-030200-
NORTHEAST ILLINOIS

CITY           SKY/WX    TMP DP  RH WIND       PRES   REMARKS
CHICAGO-OHARE  MOCLDY    62  46  55 E9        30.08S
CHICAGO-MIDWAY MOCLDY    63  46  54 E7        30.09S
AURORA         PTCLDY    68  45  43 SE7       30.07S
LANSING*       CLEAR     58  42  54 NE8       30.09F
JOLIET*        CLEAR     68  51  54 E6        30.08R
WAUKEGAN       CLEAR     55  47  74 E5        30.09F
DUPAGE AIRPORT CLEAR     67  49  52 E7        30.06F
KANKAKEE*      CLEAR     67  53  60 E5        30.08S
WHEELING       PTCLDY    60  45  57 E3        30.11S
MORRIS*        PTCLDY    68  48  49 SE3       30.06S
ROMEOVILLE*    CLEAR     65  49  55 E9        30.07S
NORTHERLY ISL    N/A     55  49  80 MISG        N/A
$$

LMZ740>746-030200-
SOUTHERN LAKE MICHIGAN

STATION/POSITION SKY/WX   TEMP    WIND        PRES    VSBY  WAVE
                          AIR SEA DIR/SP/G                  HT/PER
                          (F)     (DEG/KT/KT) (MB)    (MI)  (FT/S)
SOUTHERN BUOY              44 38  360/  6/  6 1020.0F
HARRISON CRIB              55      30/  5/  7   N/A
BURNHAM HARBOR             54      40/  4/  6   N/A
CALUMET HARBOR             56      40/  5/  8   N/A
BURNS HARBOR                       60/ 10/ 11 1020.0R
MICHIGAN CITY              56      20/  9/ 11   N/A
MICHIGAN CITY 6N           55 56   70/  8/ 10   N/A           1/ 2
ST. JOSEPH                 55 55   60/ 10/ 12   N/A           1/ 2
$$

ILZ025>027-034>036-040-047-049-050-058-095>099-030200-
WEST-CENTRAL ILLINOIS

CITY           SKY/WX    TMP DP  RH WIND       PRES   REMARKS
QUINCY         CLOUDY    68  56  65 SW3       30.03F
GALESBURG*     PTCLDY    68  51  54 SE5       30.05F
MACOMB*        PTCLDY    69  53  56 S5        30.06F
JACKSONVILLE*  CLOUDY    71  59  64 SE5       30.05S
PITTSFIELD*    CLOUDY    70  60  70 CALM      30.05S
$$

ILZ028>032-037-038-041>044-048-051>054-059>061-030200-
CENTRAL ILLINOIS

CITY           SKY/WX    TMP DP  RH WIND       PRES   REMARKS
PONTIAC        PTCLDY    69  55  60 E6        30.07S
BLOOMINGTON    PTCLDY    68  55  62 E7        30.07F
DECATUR        PTCLDY    69  55  60 E5        30.05S
PEORIA         PTCLDY    71  52  50 CALM      30.05F
LACON*         PTCLDY    68  51  53 CALM      30.05S
LINCOLN*       CLEAR     71  57  61 CALM      30.03S
SPRINGFIELD    PTCLDY    71  57  61 SE5       30.05S
TAYLORVILLE    CLEAR     66  57  72 SE3       30.05S
$$

ILZ033-039-045-046-055>057-062-063-030200-
EAST-CENTRAL ILLINOIS

CITY           SKY/WX    TMP DP  RH WIND       PRES   REMARKS
CHAMPAIGN      CLEAR     67  56  67 E6        30.06F
DANVILLE*      CLEAR     66  53  61 E3        30.06R
RANTOUL*       CLEAR     70  56  60 E5        30.07S
MATTOON        CLEAR     67  58  72 S3        30.05S
PARIS*         CLEAR     67  56  67 NE5       30.07S
$$

ILZ079-100>102-030200-
SOUTHWEST ILLINOIS

CITY           SKY/WX    TMP DP  RH WIND       PRES   REMARKS
ALTON          PTCLDY    66  63  88 SE6       30.06R
BELLEVILLE     PTCLDY    65  59  82 SE6       30.05S
CAHOKIA*       CLEAR     67  57  70 SE5       30.05R
SPARTA*        CLOUDY    63  57  81 SE3       30.07S
$$

ILZ064>066-069>071-074>076-080>082-084>086-088>090-092>094-030200-
SOUTH-CENTRAL ILLINOIS

CITY           SKY/WX    TMP DP  RH WIND       PRES   REMARKS
CARBONDALE     CLOUDY    64  58  80 CALM      30.07R
CAIRO*         CLOUDY    64  58  81 NE5       30.05S
EFFINGHAM*     CLEAR     67  56  67 S3        30.07S
MARION         CLOUDY    64  57  77 E3        30.07S
MT. VERNON     CLOUDY    63  54  72 CALM      30.08S
CENTRALIA*     CLOUDY    64  55  74 SE5       30.07S
SALEM*         CLOUDY    67  57  71 SE3       30.08R
$$

ILZ067-068-072-073-078-083-087-091-030200-
SOUTHEAST ILLINOIS

CITY           SKY/WX    TMP DP  RH WIND       PRES   REMARKS
LAWRENCEVILLE  CLEAR     67  58  72 S6        30.06R
FLORA*         CLEAR     64  56  75 CALM      30.07S
FAIRFIELD*     PTCLDY    62  57  85 CALM      30.06S
HARRISBURG*    CLOUDY    64  57  80 CALM      30.08R
ROBINSON*      PTCLDY    69  56  63 CALM      30.06S
CARMI*         PTCLDY    63  54  72 SE3       30.07S
$$

ABBREVIATIONS USED IN REMARKS
   TC - TEMPERATURE IN CELSIUS
  WCI - WIND CHILL INDEX
   HX - HEAT INDEX
  VSB - VISIBILITY
$$



USA.gov is the U.S. government's official web portal to all federal, state and local government web resources and services.